Bismarck, ND

7:20 AM CDT on July 24, 2017 (GMT -0500)
Bismarck Municipal

Weather History for KBIS - March, 2014

Change the Weather History Date:

Wednesday, March 5, 2014

  Actual Average Record
Temperature  
Mean Temperature 19 °F 25 °F  
Max Temperature 27 °F 35 °F 72 °F (2000)
Min Temperature 11 °F 15 °F -25 °F (1919)
Degree Days  
Heating Degree Days 46 40  
Month to date heating degree days 299 205  
Since 1 July heating degree days 7151 6636  
Cooling Degree Days 0 0  
Month to date cooling degree days 0 0  
Year to date cooling degree days 0 0  
Moisture  
Dew Point 12 °F    
Average Humidity 76    
Maximum Humidity 84    
Minimum Humidity 68    
Precipitation  
Precipitation T in 0.03 in 0.95 in (1983)
Month to date precipitation 0.10 0.12  
Year to date precipitation 0.67 1.06  
Snow  
Snow T in 0.40 in 4.20 in (1900)
Month to date snowfall 1.8 1.6  
Since 1 July snowfall 27.0 39.1  
Snow Depth 2.00 in    
Sea Level Pressure  
Sea Level Pressure 30.16 in    
Wind  
Wind Speed 12 mph (SSE)    
Max Wind Speed 22 mph    
Max Gust Speed 27 mph    
Visibility 7 miles    
Events Snow    
T = Trace of Precipitation, MM = Missing Value Source: NWS Daily Summary

Daily Weather History Graph

Daily Weather History Graph

Search for Another Location

Airport or City:

Trip Planner

Search our weather history database for the weather conditions in past years. The results will help you decide how hot, cold, wet, or windy it might be!

Date:

Astronomy

Mar. 05, 2014 Rise Set
Actual Time 7:15 AM CST 6:34 PM CST
Civil Twilight 6:44 AM CST 7:04 PM CST
Nautical Twilight 6:09 AM CST 7:40 PM CST
Astronomical Twilight 5:34 AM CST 8:15 PM CST
Moon 9:23 AM CST (3/5) No Moon Set
Length of Visible Light 12h 20m
Length of Day
11h 19m
Waxing Crescent, 23% of the Moon is Illuminated
Mar 5
Waxing Crescent
Mar 8
First Quarter
Mar 16
Full
Mar 23
Last Quarter
Mar 30
New

Hourly Weather History & Observations

Time (CST) Temp. Windchill Dew Point Humidity Pressure Visibility Wind Dir Wind Speed Gust Speed Precip Events Conditions
12:52 AM 12.0 °F -1.3 °F 6.1 °F 77% 30.32 in 10.0 mi SE 10.4 mph - N/A   Overcast
1:29 AM 12.0 °F -0.4 °F 6.1 °F 77% 30.20 in 10.0 mi SE 9.2 mph - N/A   Overcast
1:52 AM 12.0 °F -0.4 °F 6.1 °F 77% 30.32 in 10.0 mi SE 9.2 mph - N/A   Overcast
2:13 AM 12.0 °F 0.5 °F 6.1 °F 77% 30.21 in 10.0 mi SE 8.1 mph - N/A   Overcast
2:52 AM 12.0 °F -1.3 °F 6.1 °F 77% 30.33 in 5.0 mi SE 10.4 mph - 0.00 in Snow Light Snow
3:52 AM 10.9 °F -0.8 °F 7.0 °F 84% 30.33 in 5.0 mi SSE 8.1 mph - 0.00 in Snow Light Snow
4:52 AM 12.0 °F -0.4 °F 7.0 °F 80% 30.33 in 7.0 mi SSE 9.2 mph - 0.00 in   Overcast
5:52 AM 10.9 °F -2.6 °F 7.0 °F 84% 30.32 in 10.0 mi SSE 10.4 mph - N/A   Overcast
6:52 AM 12.0 °F -1.3 °F 7.0 °F 80% 30.30 in 10.0 mi SSE 10.4 mph - N/A   Overcast
7:10 AM 12.0 °F -2.7 °F 7.0 °F 80% 30.19 in 10.0 mi SSE 12.7 mph - N/A   Overcast
7:52 AM 12.0 °F -4.0 °F 7.0 °F 80% 30.30 in 3.0 mi SSE 15.0 mph - 0.00 in Snow Light Snow
8:03 AM 12.0 °F -3.4 °F 7.0 °F 80% 30.18 in 2.5 mi SSE 13.8 mph - 0.00 in Snow Light Snow
8:21 AM 12.0 °F -2.7 °F 8.1 °F 84% 30.18 in 1.5 mi SSE 12.7 mph - 0.00 in Snow Light Snow
8:45 AM 12.9 °F -2.8 °F 8.1 °F 81% 30.18 in 2.0 mi SSE 15.0 mph - 0.00 in Snow Light Snow
8:52 AM 12.9 °F -2.2 °F 8.1 °F 81% 30.29 in 2.5 mi SSE 13.8 mph - 0.00 in Snow Light Snow
9:02 AM 12.9 °F -2.2 °F 8.1 °F 81% 30.18 in 3.0 mi SSE 13.8 mph - 0.00 in Snow Light Snow
9:24 AM 14.0 °F -1.4 °F 9.0 °F 80% 30.18 in 2.5 mi SSE 15.0 mph - 0.00 in Snow Light Snow
9:48 AM 15.8 °F 1.4 °F 8.6 °F 73% 30.16 in 3.0 mi SSE 13.8 mph - 0.00 in Snow Light Snow
9:52 AM 15.1 °F -1.1 °F 9.0 °F 77% 30.27 in 3.0 mi SSE 17.3 mph - 0.00 in Snow Light Snow
10:38 AM 16.0 °F 0.1 °F 10.0 °F 77% 30.15 in 2.0 mi South 17.3 mph - 0.00 in Snow Light Snow
10:52 AM 16.0 °F -0.4 °F 10.9 °F 81% 30.24 in 2.0 mi SSE 18.4 mph - 0.00 in Snow Light Snow
11:06 AM 17.1 °F 3.0 °F 10.9 °F 77% 30.14 in 4.0 mi South 13.8 mph - 0.00 in   Haze
11:52 AM 19.0 °F 3.6 °F 12.0 °F 74% 30.22 in 4.0 mi South 18.4 mph - 0.00 in   Haze
12:52 PM 21.0 °F 6.6 °F 14.0 °F 74% 30.18 in 5.0 mi South 17.3 mph - N/A   Haze
1:01 PM 21.0 °F 5.0 °F 14.0 °F 74% 30.08 in 5.0 mi South 21.9 mph - N/A   Haze
1:52 PM 21.9 °F 8.7 °F 16.0 °F 78% 30.14 in 8.0 mi South 15.0 mph - N/A   Overcast
2:52 PM 25.0 °F 13.1 °F 16.0 °F 69% 30.12 in 10.0 mi South 13.8 mph - N/A   Overcast
3:20 PM 25.0 °F 10.6 °F 17.1 °F 72% 30.01 in 10.0 mi South 20.7 mph - N/A   Scattered Clouds
3:52 PM 27.0 °F 16.7 °F 18.0 °F 69% 30.09 in 10.0 mi South 11.5 mph 20.7 mph N/A   Clear
4:52 PM 26.1 °F 15.0 °F 17.1 °F 69% 30.07 in 10.0 mi South 12.7 mph - N/A   Clear
5:52 PM 25.0 °F 15.5 °F 17.1 °F 72% 30.06 in 10.0 mi South 9.2 mph - N/A   Clear
6:52 PM 24.1 °F 13.7 °F 17.1 °F 75% 30.05 in 10.0 mi South 10.4 mph - N/A   Clear
7:52 PM 21.9 °F 11.7 °F 17.1 °F 82% 30.04 in 10.0 mi SSE 9.2 mph - N/A   Clear
8:52 PM 23.0 °F 11.7 °F 18.0 °F 81% 30.02 in 10.0 mi South 11.5 mph - N/A   Clear
9:52 PM 24.1 °F 13.7 °F 19.0 °F 81% 29.99 in 10.0 mi South 10.4 mph - N/A   Clear
10:52 PM 25.0 °F 14.8 °F 19.9 °F 81% 29.95 in 10.0 mi SSE 10.4 mph - N/A   Mostly Cloudy
11:52 PM 25.0 °F 16.3 °F 21.0 °F 85% 29.92 in 10.0 mi SSE 8.1 mph - N/A   Mostly Cloudy